Tracking 27124 objects as of 31-Mar-2023
HD Live streaming from Space Station
objects crossing your sky now

COSMOS 970 DEB

Track COSMOS 970 DEB now!
10-day predictions


NORAD ID: 14442
Int'l Code: 1977-121BE
Perigee: 974.4 km
Apogee: 980.6 km
Inclination: 65.4 °
Period: 104.5 minutes
Semi major axis: 7348 km
RCS: 0.062 m2 (small)
Launch date: December 21, 1977
Source: Commonwealth of Independent States (former USSR) (CIS)
Launch site: TYURATAM MISSILE AND SPACE COMPLEX (TTMTR)

Note: This is SATELLITE DEBRIS
Your satellite tracking list
Your tracking list is empty




NASA's NSSDC Master Catalog

Two Line Element Set (TLE):
1 14442U 77121BE  23089.64195024  .00004287  00000-0  43344-2 0  9997
2 14442  65.3698 210.7166 0004184 236.1997 218.2154 13.78173920239481
Source of the keplerian elements: AFSPC